Location: Quedlinburg
(51.7921°N, 11.1414°E)
Time: 19:40:30
(UTC+02:00)

CUBESAT XI-V - Pass Details

Date: 20 March 2026
Orbit: 643 x 664 km, 98.3° (Epoch: 14 April)

Event Time Altitude Azimuth Distance (km) Brightness Sun altitude
Exits shadow 02:22:08 31° 45° (NE) 1,158 ? -32.7°
Drops below altitude 10° 02:25:26 10° 1° (N) 2,064 ? -32.4°
Sets 02:27:49 0° 352° (N) 2,976 ? -32.1°
